[[{"header":{"parameterUnit":"m.s-1","parameterCategory":1,"la1":30.2991,"la2":30.254,"lo1":-89.0895,"lo2":-89.0444,"dy":0.0017,"dx":0.0017,"nx":28,"ny":28,"refTime":"2024-02-21T03:00:00:Z","depth":0,"parameterNumber":2,"parameterNumberName":"U-component_of_WINDS"},"data":[0,0,0,0,0,0,0,0,0,0,0,0,0,0,0,0,0,0,0,0,0,0,0,0,0,0,0,0,0,0,0,0,0,0,0,0,0,0,0,0,0,0,0,0,0,0,0,0,0,0,0,0,0,0,0,0,0,0,-1.1538,-1.1539,0,-1.1597,-1.1598,-1.1599,-1.159,-1.1589,-1.1588,-1.1587,-1.1649,-1.1651,-1.1654,0,0,0,0,0,0,0,0,0,0,0,0,0,-1.142,-1.1422,-1.1538,-1.1539,-1.154,-1.1597,-1.1598,-1.1599,-1.159,-1.1589,-1.1588,-1.1587,-1.1648,-1.1651,-1.1654,0,0,0,0,0,0,0,0,0,0,0,0,0,-1.1474,-1.1423,-1.1538,-1.1542,-1.1543,-1.1597,-1.1598,-1.1599,-1.1591,-1.1589,-1.1588,-1.1586,-1.1647,-1.1651,-1.1654,-1.1707,0,0,-1.1666,-1.1668,0,0,0,0,0,0,0,0,-1.1471,-1.1479,-1.1541,-1.1542,-1.1543,-1.1585,-1.1579,-1.1635,-1.1591,-1.1573,-1.1587,-1.1586,-1.1629,-1.1634,-1.1648,-1.171,-1.1713,-1.1666,-1.1669,-1.167,-1.1671,0,0,0,0,0,0,0,-1.1467,-1.1476,-1.1562,-1.1542,-1.1543,-1.1542,-1.1548,-1.1589,-1.1608,-1.1574,-1.1574,-1.1581,-1.1629,-1.1645,-1.165,-1.1714,-1.1666,-1.167,-1.1672,-1.1673,-1.1823,-1.1824,0,0,0,0,0,0,-1.1462,-1.1473,-1.156,-1.1563,-1.1503,-1.1545,-1.1552,-1.1573,-1.1608,-1.1612,-1.1582,-1.158,-1.1639,-1.1645,-1.1652,-1.1716,-1.167,-1.1674,-1.1676,-1.1821,-1.1823,-1.1825,0,0,0,0,0,0,-1.146,-1.147,-1.1557,-1.1518,-1.1529,-1.1549,-1.1573,-1.1575,-1.159,-1.1614,-1.1617,-1.1594,-1.1638,-1.1646,-1.1694,-1.1718,-1.1676,-1.1679,-1.1819,-1.1822,-1.1824,-1.1844,0,0,0,0,0,0,-1.1456,-1.1469,-1.1489,-1.1519,-1.1531,-1.1598,-1.1574,-1.1577,-1.1597,-1.1595,-1.1626,-1.163,-1.1637,-1.1688,-1.1697,-1.1722,-1.1682,-1.1817,-1.182,-1.1823,-1.1842,-1.1847,-1.1852,0,0,0,0,0,-1.1452,-1.1493,-1.149,-1.1501,-1.1556,-1.1599,-1.1606,-1.1614,-1.1599,-1.1619,-1.1635,-1.1629,-1.1714,-1.1693,-1.1703,-1.173,-1.1815,-1.1819,-1.1823,-1.1839,-1.1846,-1.1852,0,0,0,0,0,0,-1.1466,-1.1497,-1.1494,-1.1545,-1.157,-1.1598,-1.1623,-1.1621,-1.165,-1.1647,-1.1656,-1.1663,-1.1711,-1.1725,-1.1701,-1.1783,-1.1763,-1.1769,-1.1771,-1.1778,-1.1783,-1.1778,-1.1685,0,0,0,0,0,-1.1475,-1.1506,-1.1532,-1.1575,-1.1587,-1.1603,-1.1622,-1.1626,-1.1652,-1.1662,-1.168,-1.1706,-1.1738,-1.1759,-1.1791,-1.1844,-1.1851,-1.1868,-1.1873,-1.1877,-1.1882,-1.1911,-1.1919,-1.1837,-1.1837,-1.1837,0,0,-1.1493,-1.1514,-1.1534,-1.1578,-1.1597,-1.163,-1.1612,-1.1648,-1.1672,-1.1667,-1.1713,-1.1728,-1.1757,-1.1807,-1.183,-1.1821,-1.1906,-1.1882,-1.1885,-1.1888,-1.1916,-1.1923,-1.193,-1.184,-1.1839,-1.1839,0,0,-1.1544,-1.1563,-1.1601,-1.1621,-1.165,-1.1661,-1.167,-1.1699,-1.1708,-1.1754,-1.1751,-1.1781,-1.1837,-1.1857,-1.1875,-1.1935,-1.1931,-1.1945,-1.1972,-1.2,-1.2007,-1.2012,-1.2033,-1.204,-1.195,-1.195,-1.195,0,-1.1563,-1.1612,-1.162,-1.1656,-1.1676,-1.1674,-1.1712,-1.1731,-1.1769,-1.1783,-1.1772,-1.1842,-1.1861,-1.1916,-1.1931,-1.1946,-1.1956,-1.1941,-1.2005,-1.2011,-1.2016,-1.2036,-1.2044,-1.1952,-1.1951,-1.1951,-1.1951,0,-1.1634,-1.1669,-1.1696,-1.1732,-1.1755,-1.1792,-1.1806,-1.1828,-1.1831,-1.1843,-1.189,-1.1913,-1.1949,-1.1963,-1.1966,-1.2019,-1.2012,-1.2003,-1.1982,-1.2025,-1.2044,-1.2052,-1.1954,-1.1953,-1.1953,-1.1952,0,0,-1.1693,-1.1735,-1.1744,-1.1761,-1.1794,-1.182,-1.1858,-1.1893,-1.1911,-1.1939,-1.197,-1.2018,-1.201,-1.203,-1.2036,-1.2061,-1.2106,-1.2049,-1.205,-1.2057,-1.2165,-1.217,-1.2179,-1.2104,-1.2106,-1.2107,-1.2162,0,-1.1746,-1.1811,-1.182,-1.1877,-1.1909,-1.1908,-1.194,-1.1964,-1.1977,-1.2006,-1.2021,-1.2054,-1.2042,-1.2054,-1.2079,-1.2095,-1.2127,-1.2091,-1.2133,-1.2134,-1.2123,-1.2189,-1.2194,-1.2245,-1.217,-1.2171,-1.2172,0,-1.1815,-1.1844,-1.1904,-1.1933,-1.1947,-1.1976,-1.2008,-1.2036,-1.2064,-1.2072,-1.2095,-1.2097,-1.2137,-1.2116,-1.217,-1.2145,-1.2163,-1.2174,-1.2176,-1.2178,-1.2154,-1.2192,-1.2262,-1.2269,-1.2183,-1.2183,-1.2182,0,-1.185,-1.1904,-1.1947,-1.1962,-1.1997,-1.2017,-1.2033,-1.2059,-1.208,-1.2109,-1.2122,-1.2156,-1.2174,-1.22,-1.2212,-1.2196,-1.2265,-1.2245,-1.2272,-1.2272,-1.2285,-1.2284,-1.2357,-1.23,-1.2299,-1.2299,-1.2299,0,-1.1907,-1.1944,-1.1964,-1.199,-1.2031,-1.2042,-1.2083,-1.2098,-1.2122,-1.2151,-1.2154,-1.2181,-1.2196,-1.2226,-1.2236,-1.2279,-1.2288,-1.2295,-1.2296,-1.2293,-1.2292,-1.2304,-1.23,-1.2301,-1.2301,-1.23,-1.23,0,-1.1952,-1.1967,-1.2014,-1.2043,-1.2052,-1.2081,-1.2107,-1.2132,-1.2146,-1.2183,-1.2193,-1.2214,-1.2249,-1.2264,-1.2309,-1.2315,-1.2364,-1.2364,-1.2354,-1.2354,-1.238,-1.2377,-1.2462,-1.2473,-1.2409,-1.241,-1.241,0,-1.1986,-1.2014,-1.2047,-1.2067,-1.2083,-1.2115,-1.2136,-1.2149,-1.2171,-1.2205,-1.2227,-1.2262,-1.2291,-1.2349,-1.2368,-1.2402,-1.2402,-1.243,-1.2407,-1.2403,-1.2401,-1.2398,-1.2401,-1.2433,-1.2434,-1.2434,-1.2435,0,-1.2045,-1.2051,-1.2081,-1.2114,-1.2139,-1.2165,-1.2191,-1.2208,-1.2224,-1.2249,-1.2285,-1.2308,-1.2353,-1.2388,-1.2424,-1.2441,-1.244,-1.2442,-1.245,-1.2446,-1.2439,-1.2442,-1.2364,-1.244,-1.2439,-1.2439,-1.2439,-1.2438,-1.2085,-1.211,-1.2137,-1.217,-1.2191,-1.2215,-1.2241,-1.2258,-1.2288,-1.2325,-1.2332,-1.237,-1.2398,-1.2446,-1.2464,-1.2495,-1.2488,-1.2499,-1.2502,-1.2504,-1.2505,-1.2435,-1.2502,-1.2502,-1.2502,-1.2501,-1.2501,0,-1.2142,-1.216,-1.2191,-1.2227,-1.2253,-1.2251,-1.228,-1.2303,-1.2337,-1.2363,-1.2391,-1.2434,-1.2468,-1.2491,-1.2526,-1.2547,-1.2548,-1.2555,-1.2553,-1.2557,-1.251,-1.2499,-1.2554,-1.2554,-1.2554,-1.2554,-1.2554,-1.2554,-1.2175,-1.2217,-1.2227,-1.2279,-1.2297,-1.2334,-1.2351,-1.2374,-1.2394,-1.2441,-1.247,-1.2485,-1.251,-1.2547,-1.2579,-1.2585,-1.2597,-1.2605,-1.261,-1.2566,-1.256,-1.2555,-1.2545,-1.2608,-1.2608,-1.2654,-1.2655,-1.2655]},{"header":{"parameterUnit":"m.s-1","parameterCategory":1,"la1":30.2991,"la2":30.254,"lo1":-89.0895,"lo2":-89.0444,"dy":0.0017,"dx":0.0017,"nx":28,"ny":28,"refTime":"2024-02-21T03:00:00:Z","depth":0,"parameterNumber":3,"parameterNumberName":"V-component_of_WINDS"},"data":[0,0,0,0,0,0,0,0,0,0,0,0,0,0,0,0,0,0,0,0,0,0,0,0,0,0,0,0,0,0,0,0,0,0,0,0,0,0,0,0,0,0,0,0,0,0,0,0,0,0,0,0,0,0,0,0,0,0,2.2072,2.2072,0,2.2046,2.2046,2.2046,2.2084,2.2086,2.2087,2.2088,2.2054,2.2052,2.205,0,0,0,0,0,0,0,0,0,0,0,0,0,2.2149,2.2148,2.2072,2.2072,2.2071,2.2046,2.2046,2.2045,2.2084,2.2086,2.2087,2.2089,2.2055,2.2052,2.205,0,0,0,0,0,0,0,0,0,0,0,0,0,2.2118,2.2147,2.2072,2.2088,2.2089,2.2046,2.2046,2.2045,2.2084,2.2086,2.2088,2.209,2.2056,2.2052,2.2049,2.1988,0,0,2.2039,2.2038,0,0,0,0,0,0,0,0,2.212,2.2116,2.2086,2.2087,2.2088,2.2071,2.2061,2.2026,2.2083,2.2085,2.2088,2.2091,2.2057,2.2054,2.2045,2.1986,2.1985,2.2039,2.2037,2.2036,2.2035,0,0,0,0,0,0,0,2.2122,2.2117,2.2062,2.2085,2.2087,2.2094,2.2092,2.2054,2.206,2.2085,2.2088,2.2085,2.2058,2.2048,2.2044,2.1984,2.2039,2.2036,2.2034,2.2033,2.1876,2.1874,0,0,0,0,0,0,2.2123,2.2118,2.2062,2.2061,2.211,2.2091,2.2089,2.2074,2.2061,2.2061,2.2083,2.2087,2.2052,2.2048,2.2043,2.1972,2.2036,2.2032,2.2031,2.1878,2.1875,2.1873,0,0,0,0,0,0,2.2125,2.2118,2.2063,2.209,2.2084,2.2088,2.2071,2.2072,2.2062,2.2059,2.206,2.2072,2.2054,2.2048,2.2002,2.1971,2.2031,2.2028,2.1881,2.1877,2.1874,2.1827,0,0,0,0,0,0,2.2127,2.2118,2.2096,2.209,2.2083,2.2025,2.2069,2.207,2.2057,2.2061,2.2048,2.2048,2.2055,2.2007,2.1999,2.1967,2.2025,2.1883,2.1879,2.1875,2.1832,2.1823,2.1815,0,0,0,0,0,2.213,2.2082,2.2095,2.2088,2.2055,2.2023,2.2018,2.203,2.2054,2.2031,2.203,2.2048,2.1976,2.2002,2.1993,2.196,2.1885,2.188,2.1876,2.1835,2.1824,2.1815,0,0,0,0,0,0,2.2081,2.2081,2.2096,2.2045,2.2034,2.2029,2.2001,2.2017,2.1997,2.2002,2.2014,2.2011,2.1963,2.1957,2.1986,2.1901,2.1934,2.1927,2.1907,2.1896,2.1888,2.1891,2.2023,0,0,0,0,0,2.2065,2.2041,2.2041,2.1996,2.199,2.1997,2.1983,2.1993,2.1981,2.1975,2.1971,2.1956,2.1931,2.1913,2.1889,2.1831,2.1829,2.1804,2.1796,2.1789,2.1783,2.1753,2.1743,2.1857,2.1857,2.1857,0,0,2.203,2.2027,2.2011,2.1986,2.1979,2.1952,2.1992,2.1961,2.1941,2.197,2.1928,2.1924,2.1909,2.1858,2.1835,2.1851,2.1751,2.1783,2.1778,2.1775,2.1747,2.1736,2.1727,2.1853,2.1854,2.1855,0,0,2.1954,2.1949,2.1913,2.1905,2.1895,2.19,2.1891,2.1885,2.1884,2.1843,2.1865,2.184,2.1795,2.1784,2.1773,2.1695,2.1712,2.1687,2.1644,2.1615,2.1606,2.1598,2.1571,2.1561,2.168,2.168,2.168,0,2.1911,2.1874,2.189,2.186,2.1848,2.1877,2.1839,2.183,2.1811,2.1802,2.1822,2.1768,2.1759,2.1707,2.1689,2.1678,2.1668,2.1688,2.1606,2.1598,2.1591,2.1566,2.1556,2.1678,2.1678,2.1678,2.1678,0,2.1823,2.1797,2.1768,2.1754,2.1739,2.1704,2.1714,2.1697,2.1709,2.1711,2.1669,2.1661,2.1636,2.1625,2.1634,2.1573,2.1584,2.1605,2.1638,2.1577,2.1554,2.1544,2.1673,2.1674,2.1675,2.1676,0,0,2.1714,2.1711,2.17,2.1695,2.1687,2.1666,2.1633,2.1612,2.1598,2.1584,2.1556,2.1519,2.1539,2.1526,2.1534,2.1509,2.145,2.1533,2.1532,2.1518,2.1384,2.1369,2.1358,2.1461,2.1459,2.1458,2.1386,0,2.1639,2.1585,2.16,2.1545,2.1522,2.1549,2.152,2.1511,2.1513,2.1492,2.1493,2.1467,2.1494,2.1487,2.1463,2.1462,2.1423,2.1467,2.1434,2.1433,2.1438,2.1345,2.1329,2.1261,2.1376,2.1375,2.1374,0,2.1544,2.1531,2.1475,2.1474,2.1464,2.1438,2.1422,2.1401,2.1392,2.1395,2.1382,2.1396,2.1363,2.1397,2.1351,2.1381,2.1368,2.1366,2.1364,2.1361,2.14,2.134,2.124,2.123,2.1359,2.136,2.1361,0,2.1472,2.144,2.1403,2.1397,2.1393,2.1375,2.1372,2.1365,2.1353,2.1337,2.1329,2.1309,2.1297,2.1281,2.1289,2.1314,2.1241,2.1276,2.1242,2.1242,2.1226,2.1227,2.1122,2.1217,2.1217,2.1217,2.1217,0,2.1387,2.1352,2.1371,2.1348,2.1309,2.1326,2.1287,2.1287,2.1281,2.1257,2.1278,2.1256,2.1268,2.1246,2.1251,2.1213,2.1207,2.1208,2.121,2.1206,2.1206,2.1198,2.1203,2.1214,2.1215,2.1215,2.1216,0,2.13,2.1311,2.1273,2.1274,2.1273,2.1245,2.1245,2.1223,2.1228,2.1198,2.1192,2.1198,2.1173,2.118,2.1152,2.1156,2.1108,2.1115,2.1112,2.1114,2.108,2.1083,2.0966,2.0952,2.1055,2.1054,2.1054,0,2.1245,2.1219,2.1219,2.1207,2.1204,2.1182,2.1171,2.1186,2.1173,2.1162,2.1141,2.1119,2.1102,2.1061,2.1062,2.1041,2.1048,2.1009,2.1045,2.1043,2.1049,2.1051,2.1048,2.1001,2.1,2.0999,2.0999,0,2.1148,2.1155,2.1139,2.1125,2.1112,2.1101,2.1091,2.1079,2.1094,2.1077,2.1054,2.1042,2.1015,2.0993,2.0975,2.097,2.0986,2.0988,2.0979,2.0975,2.0975,2.0975,2.1093,2.099,2.0991,2.0991,2.0992,2.0992,2.1076,2.1055,2.1052,2.1034,2.1029,2.1021,2.1001,2.1005,2.0987,2.0968,2.0978,2.0951,2.0943,2.0921,2.0914,2.0892,2.0907,2.0894,2.0891,2.0887,2.0884,2.0978,2.0889,2.0889,2.0889,2.0889,2.0889,0,2.098,2.0981,2.0964,2.0952,2.0938,2.0958,2.0949,2.0935,2.0912,2.0905,2.0889,2.0863,2.0842,2.0842,2.0822,2.0805,2.0812,2.0799,2.0801,2.08,2.0871,2.0881,2.0794,2.0794,2.0794,2.0794,2.0794,2.0794,2.0929,2.0896,2.0903,2.0868,2.0868,2.0844,2.0838,2.083,2.0824,2.0795,2.0779,2.078,2.0776,2.0757,2.0738,2.0739,2.073,2.0715,2.0718,2.0785,2.0794,2.0803,2.0813,2.0713,2.0713,2.0649,2.0648,2.0648]}]]